Ames, IA

10:10 PM CDT on April 23, 2018 (GMT -0500)
Ames Municipal

Weather History for KAMW - November, 2014

Change the Weather History Date:

Thursday, November 6, 2014

  Actual Average Record
Temperature  
Mean Temperature 37 °F 42 °F  
Max Temperature 48 °F 52 °F 75 °F (2001)
Min Temperature 26 °F 31 °F 19 °F (2003)
Degree Days  
Heating Degree Days 28 23  
Month to date heating degree days 126 133  
Since 1 July heating degree days 693 729  
Cooling Degree Days 0 0  
Month to date cooling degree days 0 0  
Year to date cooling degree days 650 752  
Moisture  
Dew Point 29 °F    
Average Humidity 67    
Maximum Humidity 92    
Minimum Humidity 42    
Precipitation  
Precipitation 0.00 in 0.09 in 1.05 in (2000)
Month to date precipitation 0.07 0.58  
Sea Level Pressure  
Sea Level Pressure 30.24 in    
Wind  
Wind Speed 15 mph (NNW)    
Max Wind Speed 32 mph    
Max Gust Speed 47 mph    
Visibility 10 miles    
Events      
T = Trace of Precipitation, MM = Missing Value Source: NWS Daily Summary

Daily Weather History Graph

Daily Weather History Graph

Search for Another Location

Airport or City:

Astronomy

Nov. 06, 2014 Rise Set
Actual Time 6:53 AM CST 5:02 PM CST
Civil Twilight 6:23 AM CST 5:31 PM CST
Nautical Twilight 5:50 AM CST 6:04 PM CST
Astronomical Twilight 5:17 AM CST 6:37 PM CST
Moon 5:10 PM CST (11/6) 6:24 AM CST (11/6)
Length of Visible Light 11h 07m
Length of Day
10h 09m
Full, 100% of the Moon is Illuminated
Nov 6
Full
Nov 6
Full
Nov 14
Last Quarter
Nov 22
New
Nov 29
First Quarter

Hourly Weather History & Observations

Time (CST) Temp. Windchill Dew Point Humidity Pressure Visibility Wind Dir Wind Speed Gust Speed Precip Events Conditions
12:53 AM 46.0 °F 38.3 °F 34.0 °F 63% 29.99 in 10.0 mi NW 20.7 mph 29.9 mph N/A   Overcast
1:32 AM 46.0 °F 38.5 °F 35.1 °F 66% 30.00 in 10.0 mi NW 19.6 mph 35.7 mph N/A   Overcast
1:53 AM 45.0 °F 35.8 °F 34.0 °F 65% 30.01 in 10.0 mi NW 26.5 mph 38.0 mph N/A   Overcast
2:53 AM 41.0 °F 29.5 °F 33.1 °F 73% 30.05 in 10.0 mi NW 32.2 mph 47.2 mph N/A   Overcast
3:53 AM 39.0 °F 27.6 °F 32.0 °F 76% 30.10 in 10.0 mi NNW 27.6 mph 39.1 mph N/A   Overcast
4:53 AM 37.9 °F 26.6 °F 30.9 °F 76% 30.14 in 10.0 mi NNW 25.3 mph 40.3 mph N/A   Overcast
5:53 AM 37.9 °F 26.8 °F 30.0 °F 73% 30.17 in 10.0 mi NNW 24.2 mph 32.2 mph N/A   Overcast
6:53 AM 37.9 °F 27.6 °F 28.9 °F 70% 30.23 in 10.0 mi NNW 20.7 mph 31.1 mph N/A   Overcast
7:53 AM 37.9 °F 27.1 °F 28.9 °F 70% 30.26 in 10.0 mi NNW 23.0 mph 26.5 mph N/A   Overcast
8:53 AM 37.0 °F 26.7 °F 28.0 °F 70% 30.30 in 10.0 mi NNW 19.6 mph 26.5 mph N/A   Mostly Cloudy
9:08 AM 37.9 °F 28.2 °F 28.9 °F 70% 30.29 in 10.0 mi NW 18.4 mph 26.5 mph N/A   Scattered Clouds
9:53 AM 41.0 °F 32.2 °F 28.9 °F 62% 30.32 in 10.0 mi NNW 18.4 mph - N/A   Partly Cloudy
10:53 AM 43.0 °F 34.5 °F 28.9 °F 58% 30.32 in 10.0 mi NW 19.6 mph 26.5 mph N/A   Clear
11:53 AM 45.0 °F 37.4 °F 28.0 °F 52% 30.31 in 10.0 mi NNW 18.4 mph 27.6 mph N/A   Clear
12:53 PM 46.0 °F 38.5 °F 27.0 °F 47% 30.32 in 10.0 mi NNW 19.6 mph 26.5 mph N/A   Clear
1:53 PM 46.9 °F - 27.0 °F 46% 30.31 in 10.0 mi NNW 20.7 mph 27.6 mph N/A   Clear
2:53 PM 48.0 °F - 27.0 °F 44% 30.31 in 10.0 mi NNW 19.6 mph 25.3 mph N/A   Partly Cloudy
3:53 PM 46.9 °F - 27.0 °F 46% 30.31 in 10.0 mi NW 12.7 mph 21.9 mph N/A   Clear
4:53 PM 42.1 °F 36.6 °F 28.0 °F 58% 30.31 in 10.0 mi NNW 9.2 mph - N/A   Clear
5:53 PM 39.0 °F 34.0 °F 28.0 °F 65% 30.31 in 10.0 mi North 6.9 mph - N/A   Clear
6:53 PM 36.0 °F 31.1 °F 27.0 °F 70% 30.32 in 10.0 mi North 5.8 mph - N/A   Clear
7:53 PM 33.1 °F - 27.0 °F 78% 30.32 in 10.0 mi Calm Calm - N/A   Clear
8:53 PM 33.1 °F - 27.0 °F 78% 30.31 in 10.0 mi Calm Calm - N/A   Clear
9:53 PM 30.0 °F - 25.0 °F 82% 30.30 in 10.0 mi Calm Calm - N/A   Clear
10:53 PM 27.0 °F - 24.1 °F 89% 30.29 in 10.0 mi Calm Calm - N/A   Clear
11:53 PM 26.1 °F - 23.0 °F 88% 30.28 in 10.0 mi Calm Calm - N/A   Clear